KAC619 OKKK-OTHH

Flight info

Callsign KAC619
Flight time 0h 53m
Altitude 27000
Route BOXIK B416 IMDOX P975 LONOS L703 HAYYA
Aircraft B77W/H-SDE1E2E3FGHIJ2J3J4J5M1RWXY/LB1D1

Departure

Time 2026-05-05 10:56
Airport Kuwait International Airport (OKKK)

Arrival

Time 2026-05-05 11:49
Airport Hamad International Airport (OTHH)
Time Latitude Longitude Altitude Speed Heading
2026-05-05 10:24 29.25203 47.95903 174 ft 0 kts 65°
2026-05-05 10:42 29.25196 47.95886 173 ft 3 kts 65°
2026-05-05 10:42 29.25188 47.95866 172 ft 3 kts 65°
2026-05-05 10:43 29.25180 47.95845 172 ft 3 kts 65°
2026-05-05 10:43 29.25172 47.95825 171 ft 3 kts 65°
2026-05-05 10:43 29.25163 47.95804 170 ft 3 kts 65°
2026-05-05 10:43 29.25161 47.95797 170 ft 0 kts 65°
2026-05-05 10:47 29.25160 47.95802 170 ft 2 kts 85°
2026-05-05 10:47 29.25152 47.95814 170 ft 2 kts 139°
2026-05-05 10:47 29.25135 47.95826 170 ft 6 kts 149°
2026-05-05 10:47 29.25069 47.95863 170 ft 13 kts 156°
2026-05-05 10:48 29.24985 47.95905 170 ft 13 kts 156°
2026-05-05 10:48 29.24901 47.95948 170 ft 13 kts 155°
2026-05-05 10:48 29.24838 47.95983 170 ft 6 kts 154°
2026-05-05 10:48 29.24798 47.96005 170 ft 6 kts 154°
2026-05-05 10:49 29.24759 47.96026 170 ft 6 kts 155°
2026-05-05 10:49 29.24737 47.96037 170 ft 2 kts 155°
2026-05-05 10:49 29.24723 47.96045 170 ft 2 kts 155°
2026-05-05 10:49 29.24709 47.96052 170 ft 2 kts 155°
2026-05-05 10:50 29.24695 47.96060 170 ft 3 kts 155°
2026-05-05 10:50 29.24663 47.96077 170 ft 7 kts 155°
2026-05-05 10:50 29.24612 47.96104 170 ft 8 kts 155°
2026-05-05 10:50 29.24560 47.96132 170 ft 8 kts 155°
2026-05-05 10:51 29.24508 47.96160 170 ft 8 kts 155°
2026-05-05 10:51 29.24456 47.96187 170 ft 8 kts 156°
2026-05-05 10:51 29.24403 47.96214 170 ft 8 kts 156°
2026-05-05 10:51 29.24351 47.96241 169 ft 8 kts 155°
2026-05-05 10:52 29.24299 47.96269 169 ft 8 kts 155°
2026-05-05 10:52 29.24246 47.96297 169 ft 8 kts 155°
2026-05-05 10:52 29.24197 47.96319 169 ft 7 kts 172°
2026-05-05 10:52 29.24158 47.96285 167 ft 8 kts 236°
2026-05-05 10:53 29.24140 47.96247 166 ft 0 kts 244°
2026-05-05 10:53 29.24138 47.96242 165 ft 0 kts 244°
2026-05-05 10:53 29.24133 47.96231 165 ft 3 kts 240°
2026-05-05 10:54 29.24111 47.96207 164 ft 5 kts 211°
2026-05-05 10:54 29.24075 47.96191 164 ft 6 kts 202°
2026-05-05 10:54 29.24039 47.96173 164 ft 6 kts 194°
2026-05-05 10:54 29.24000 47.96182 163 ft 6 kts 158°
2026-05-05 10:55 29.23950 47.96207 163 ft 17 kts 156°
2026-05-05 10:55 29.23715 47.96331 164 ft 67 kts 154°
2026-05-05 10:55 29.23083 47.96667 167 ft 131 kts 155°
2026-05-05 10:55 29.22094 47.97188 174 ft 179 kts 156°
2026-05-05 10:56 29.20941 47.97794 642 ft 182 kts 153°
2026-05-05 10:56 29.19777 47.98476 1123 ft 190 kts 151°
2026-05-05 10:56 29.18743 47.99410 1509 ft 201 kts 122°
2026-05-05 10:56 29.18260 48.00980 1790 ft 213 kts 107°
2026-05-05 10:57 29.17849 48.02656 2184 ft 227 kts 110°
2026-05-05 10:57 29.17260 48.04410 2472 ft 246 kts 115°
2026-05-05 10:57 29.16565 48.06249 3065 ft 256 kts 117°
2026-05-05 10:57 29.15849 48.08136 3626 ft 261 kts 116°
2026-05-05 10:58 29.15160 48.10086 4048 ft 269 kts 107°
2026-05-05 10:58 29.15033 48.12255 4600 ft 279 kts 93°
2026-05-05 10:58 29.15059 48.14500 5290 ft 284 kts 93°
2026-05-05 10:58 29.15080 48.16777 5979 ft 289 kts 94°
2026-05-05 10:59 29.15095 48.19096 6623 ft 293 kts 94°
2026-05-05 10:59 29.15105 48.21470 7327 ft 295 kts 94°
2026-05-05 10:59 29.15112 48.23830 7865 ft 299 kts 94°
2026-05-05 10:59 29.15116 48.26215 7988 ft 301 kts 94°
2026-05-05 11:00 29.15118 48.28610 8010 ft 301 kts 94°
2026-05-05 11:00 29.15119 48.31008 8505 ft 303 kts 94°
2026-05-05 11:00 29.14960 48.33389 9077 ft 299 kts 111°
2026-05-05 11:00 29.14020 48.35473 9639 ft 293 kts 132°
2026-05-05 11:01 29.12702 48.37279 10163 ft 299 kts 135°
2026-05-05 11:01 29.11286 48.39115 10418 ft 319 kts 136°
2026-05-05 11:01 29.09751 48.41082 10597 ft 343 kts 136°
2026-05-05 11:01 29.08114 48.43184 10750 ft 366 kts 135°
2026-05-05 11:02 29.06383 48.45420 11092 ft 382 kts 135°
2026-05-05 11:02 29.04605 48.47733 11669 ft 392 kts 135°
2026-05-05 11:02 29.02794 48.50099 12370 ft 399 kts 135°
2026-05-05 11:02 29.00956 48.52503 13132 ft 404 kts 135°
2026-05-05 11:03 28.99097 48.54934 13864 ft 410 kts 135°
2026-05-05 11:03 28.97206 48.57405 14530 ft 415 kts 135°
2026-05-05 11:03 28.95293 48.59904 15216 ft 421 kts 135°
2026-05-05 11:03 28.93354 48.62433 15900 ft 426 kts 135°
2026-05-05 11:04 28.91388 48.64996 16588 ft 432 kts 135°
2026-05-05 11:04 28.89399 48.67587 17278 ft 437 kts 135°
2026-05-05 11:04 28.87382 48.70215 17969 ft 443 kts 135°
2026-05-05 11:04 28.85340 48.72874 18590 ft 447 kts 135°
2026-05-05 11:05 28.83286 48.75546 19263 ft 450 kts 135°
2026-05-05 11:05 28.81214 48.78239 19952 ft 452 kts 135°
2026-05-05 11:05 28.79300 48.81095 20505 ft 459 kts 126°
2026-05-05 11:05 28.77691 48.84275 21041 ft 467 kts 122°
2026-05-05 11:06 28.76154 48.87559 21667 ft 471 kts 122°
2026-05-05 11:06 28.74624 48.90866 22331 ft 473 kts 122°
2026-05-05 11:06 28.73063 48.94180 22960 ft 476 kts 123°
2026-05-05 11:06 28.71467 48.97496 23513 ft 479 kts 123°
2026-05-05 11:07 28.69839 49.00826 23952 ft 484 kts 124°
2026-05-05 11:07 28.68185 49.04181 24384 ft 488 kts 124°
2026-05-05 11:07 28.66512 49.07567 24830 ft 493 kts 124°
2026-05-05 11:07 28.64826 49.10980 25261 ft 497 kts 124°
2026-05-05 11:08 28.63126 49.14426 25713 ft 501 kts 124°
2026-05-05 11:08 28.61414 49.17894 26115 ft 505 kts 124°
2026-05-05 11:08 28.59519 49.21241 26440 ft 503 kts 133°
2026-05-05 11:08 28.57142 49.24138 26794 ft 499 kts 143°
2026-05-05 11:09 28.54433 49.26580 27224 ft 495 kts 152°
2026-05-05 11:09 28.51480 49.28516 27586 ft 489 kts 157°
2026-05-05 11:09 28.48580 49.30649 27808 ft 505 kts 148°
2026-05-05 11:09 28.45886 49.33276 28166 ft 512 kts 143°
2026-05-05 11:10 28.43258 49.36012 28555 ft 515 kts 143°
2026-05-05 11:10 28.40601 49.38756 28913 ft 517 kts 144°
2026-05-05 11:10 28.37907 49.41476 29223 ft 520 kts 144°
2026-05-05 11:10 28.35175 49.44183 29500 ft 523 kts 145°
2026-05-05 11:11 28.32417 49.46897 29814 ft 526 kts 145°
2026-05-05 11:11 28.29652 49.49622 30141 ft 526 kts 145°
2026-05-05 11:11 28.26899 49.52349 30535 ft 525 kts 146°
2026-05-05 11:11 28.24152 49.55071 30952 ft 524 kts 146°
2026-05-05 11:12 28.21397 49.57756 31314 ft 521 kts 148°
2026-05-05 11:12 28.18542 49.60259 31650 ft 518 kts 150°
2026-05-05 11:12 28.15662 49.62711 31992 ft 518 kts 151°
2026-05-05 11:12 28.12781 49.65153 32344 ft 517 kts 151°
2026-05-05 11:13 28.09907 49.67602 32684 ft 517 kts 151°
2026-05-05 11:13 28.04164 49.72522 32748 ft 517 kts 152°
2026-05-05 11:14 27.98304 49.77166 32761 ft 513 kts 154°
2026-05-05 11:14 27.92384 49.81678 32759 ft 513 kts 154°
2026-05-05 11:15 27.86491 49.86251 32759 ft 514 kts 154°
2026-05-05 11:15 27.80597 49.90842 32764 ft 514 kts 154°
2026-05-05 11:16 27.74690 49.95393 32762 ft 514 kts 154°
2026-05-05 11:16 27.68771 49.99936 32758 ft 514 kts 154°
2026-05-05 11:17 27.62852 50.04482 32763 ft 515 kts 154°
2026-05-05 11:17 27.56935 50.09024 32760 ft 515 kts 154°
2026-05-05 11:18 27.51013 50.13565 32755 ft 515 kts 154°
2026-05-05 11:18 27.45085 50.18104 32754 ft 515 kts 154°
2026-05-05 11:19 27.39229 50.22785 32759 ft 518 kts 151°
2026-05-05 11:19 27.33426 50.27591 32764 ft 518 kts 152°
2026-05-05 11:20 27.27604 50.32349 32759 ft 517 kts 152°
2026-05-05 11:20 27.21770 50.37076 32759 ft 517 kts 152°
2026-05-05 11:21 27.15930 50.41798 32763 ft 517 kts 152°
2026-05-05 11:21 27.10096 50.46514 32761 ft 517 kts 152°
2026-05-05 11:22 27.04256 50.51230 32764 ft 517 kts 152°
2026-05-05 11:22 27.02797 50.52406 32759 ft 517 kts 152°
2026-05-05 11:23 26.98625 50.55745 32765 ft 517 kts 152°
2026-05-05 11:23 26.93881 50.59969 32773 ft 521 kts 147°
2026-05-05 11:24 26.88326 50.65199 32748 ft 521 kts 147°
2026-05-05 11:24 26.82856 50.70357 32653 ft 506 kts 147°
2026-05-05 11:24 26.80173 50.72872 32412 ft 502 kts 147°
2026-05-05 11:25 26.77491 50.75371 32012 ft 502 kts 147°
2026-05-05 11:25 26.74803 50.77867 31562 ft 503 kts 147°
2026-05-05 11:25 26.72102 50.80372 31088 ft 505 kts 147°
2026-05-05 11:25 26.69396 50.82882 30607 ft 506 kts 147°
2026-05-05 11:26 26.66684 50.85401 30180 ft 507 kts 146°
2026-05-05 11:26 26.63980 50.87913 29838 ft 505 kts 146°
2026-05-05 11:26 26.61285 50.90417 29523 ft 501 kts 146°
2026-05-05 11:26 26.58614 50.92898 29227 ft 497 kts 146°
2026-05-05 11:27 26.55964 50.95357 28919 ft 494 kts 146°
2026-05-05 11:27 26.53328 50.97800 28590 ft 491 kts 146°
2026-05-05 11:27 26.50708 51.00225 28250 ft 488 kts 146°
2026-05-05 11:27 26.48104 51.02633 27942 ft 485 kts 145°
2026-05-05 11:28 26.45512 51.05030 27626 ft 482 kts 145°
2026-05-05 11:28 26.42937 51.07409 27332 ft 479 kts 145°
2026-05-05 11:28 26.40371 51.09780 26902 ft 479 kts 144°
2026-05-05 11:28 26.37781 51.12167 26123 ft 488 kts 144°
2026-05-05 11:29 26.35145 51.14599 25411 ft 494 kts 143°
2026-05-05 11:29 26.32496 51.17050 24882 ft 495 kts 143°
2026-05-05 11:29 26.29847 51.19501 24367 ft 496 kts 143°
2026-05-05 11:29 26.27194 51.21952 23885 ft 495 kts 142°
2026-05-05 11:30 26.24552 51.24392 23510 ft 492 kts 142°
2026-05-05 11:30 26.21930 51.26812 23141 ft 488 kts 142°
2026-05-05 11:30 26.19327 51.29214 22736 ft 484 kts 142°
2026-05-05 11:30 26.16741 51.31599 22330 ft 481 kts 142°
2026-05-05 11:31 26.14172 51.33966 21910 ft 478 kts 142°
2026-05-05 11:31 26.11655 51.36284 21512 ft 475 kts 142°
2026-05-05 11:31 26.09084 51.38649 21126 ft 472 kts 142°
2026-05-05 11:31 26.06537 51.40856 20835 ft 469 kts 147°
2026-05-05 11:32 26.03807 51.42822 20769 ft 467 kts 149°
2026-05-05 11:32 26.01055 51.44750 20763 ft 467 kts 149°
2026-05-05 11:32 25.98306 51.46673 20770 ft 467 kts 149°
2026-05-05 11:32 25.95556 51.48601 20764 ft 467 kts 149°
2026-05-05 11:33 25.92811 51.50534 20764 ft 467 kts 149°
2026-05-05 11:33 25.90066 51.52470 20761 ft 467 kts 149°
2026-05-05 11:33 25.87321 51.54410 20768 ft 467 kts 149°
2026-05-05 11:33 25.84580 51.56348 20764 ft 467 kts 149°
2026-05-05 11:34 25.81838 51.58285 20763 ft 467 kts 149°
2026-05-05 11:34 25.79103 51.60217 20682 ft 465 kts 149°
2026-05-05 11:34 25.76387 51.62135 20200 ft 461 kts 149°
2026-05-05 11:34 25.73814 51.63949 19660 ft 457 kts 149°
2026-05-05 11:35 25.71151 51.65826 19068 ft 453 kts 149°
2026-05-05 11:35 25.69321 51.67115 18667 ft 451 kts 149°
2026-05-05 11:35 25.67707 51.68252 18309 ft 449 kts 149°
2026-05-05 11:35 25.65119 51.70074 17723 ft 445 kts 149°
2026-05-05 11:36 25.62510 51.71909 17079 ft 442 kts 148°
2026-05-05 11:36 25.59926 51.73726 16433 ft 439 kts 148°
2026-05-05 11:36 25.57360 51.75530 15791 ft 438 kts 148°
2026-05-05 11:36 25.54777 51.77344 15155 ft 436 kts 148°
2026-05-05 11:37 25.52153 51.78949 14411 ft 429 kts 160°
2026-05-05 11:37 25.49230 51.79572 13655 ft 429 kts 181°
2026-05-05 11:37 25.46281 51.79204 13043 ft 424 kts 195°
2026-05-05 11:37 25.43570 51.78052 12541 ft 411 kts 210°
2026-05-05 11:38 25.41111 51.76458 11927 ft 408 kts 213°
2026-05-05 11:38 25.38706 51.74867 11355 ft 406 kts 212°
2026-05-05 11:38 25.36342 51.73348 10922 ft 378 kts 212°
2026-05-05 11:38 25.34104 51.71936 10000 ft 365 kts 210°
2026-05-05 11:39 25.31706 51.70980 8934 ft 372 kts 188°
2026-05-05 11:39 25.29122 51.71071 8404 ft 369 kts 168°
2026-05-05 11:39 25.26695 51.71975 8267 ft 368 kts 158°
2026-05-05 11:39 25.24323 51.73055 8125 ft 369 kts 158°
2026-05-05 11:40 25.21951 51.74136 7715 ft 369 kts 158°
2026-05-05 11:40 25.19572 51.75198 7311 ft 366 kts 158°
2026-05-05 11:40 25.17246 51.76225 6871 ft 350 kts 158°
2026-05-05 11:40 25.15049 51.77188 6427 ft 329 kts 158°
2026-05-05 11:41 25.12995 51.78088 5978 ft 312 kts 158°
2026-05-05 11:41 25.11014 51.78956 5413 ft 301 kts 158°
2026-05-05 11:41 25.09090 51.79800 4767 ft 295 kts 158°
2026-05-05 11:41 25.07172 51.80559 4073 ft 291 kts 169°
2026-05-05 11:42 25.05221 51.80502 3670 ft 275 kts 198°
2026-05-05 11:42 25.03603 51.79514 3245 ft 261 kts 227°
2026-05-05 11:42 25.02659 51.77881 3169 ft 252 kts 248°
2026-05-05 11:42 25.02023 51.76073 3124 ft 254 kts 251°
2026-05-05 11:43 25.01434 51.74236 3056 ft 253 kts 253°
2026-05-05 11:43 25.01219 51.72366 3004 ft 242 kts 283°
2026-05-05 11:43 25.01889 51.70764 2998 ft 231 kts 315°
2026-05-05 11:43 25.03220 51.69857 3000 ft 224 kts 344°
2026-05-05 11:44 25.04693 51.69435 3018 ft 215 kts 346°
2026-05-05 11:44 25.06100 51.69008 3005 ft 205 kts 343°
2026-05-05 11:44 25.07395 51.68516 3010 ft 190 kts 340°
2026-05-05 11:44 25.08601 51.68006 2992 ft 182 kts 339°
2026-05-05 11:45 25.09770 51.67498 2981 ft 179 kts 339°
2026-05-05 11:45 25.10902 51.67001 2924 ft 177 kts 339°
2026-05-05 11:45 25.12046 51.66497 2713 ft 175 kts 339°
2026-05-05 11:45 25.13156 51.66007 2451 ft 168 kts 338°
2026-05-05 11:46 25.14222 51.65532 2272 ft 164 kts 339°
2026-05-05 11:46 25.15273 51.65070 2071 ft 162 kts 339°
2026-05-05 11:46 25.16316 51.64613 1860 ft 161 kts 338°
2026-05-05 11:46 25.17342 51.64160 1669 ft 159 kts 339°
2026-05-05 11:47 25.18373 51.63705 1441 ft 158 kts 339°
2026-05-05 11:47 25.19407 51.63246 1265 ft 161 kts 340°
2026-05-05 11:47 25.20445 51.62791 1060 ft 159 kts 339°
2026-05-05 11:47 25.21481 51.62333 848 ft 161 kts 340°
2026-05-05 11:48 25.23596 51.61403 507 ft 168 kts 339°
2026-05-05 11:48 25.24676 51.60915 256 ft 165 kts 342°
2026-05-05 11:48 25.25737 51.60472 40 ft 161 kts 342°
2026-05-05 11:49 25.26678 51.60049 20 ft 125 kts 336°
2026-05-05 11:49 25.27315 51.59769 23 ft 72 kts 338°
2026-05-05 11:49 25.27685 51.59604 19 ft 53 kts 339°
2026-05-05 11:49 25.27991 51.59520 20 ft 25 kts
2026-05-05 11:50 25.28110 51.59547 27 ft 12 kts 36°
2026-05-05 11:50 25.28091 51.59624 28 ft 12 kts 142°
2026-05-05 11:50 25.28014 51.59662 30 ft 12 kts 158°
2026-05-05 11:50 25.27937 51.59696 30 ft 12 kts 158°
2026-05-05 11:51 25.27860 51.59731 29 ft 12 kts 158°
2026-05-05 11:51 25.27782 51.59765 28 ft 12 kts 158°
2026-05-05 11:51 25.27704 51.59799 29 ft 12 kts 158°
2026-05-05 11:51 25.27627 51.59834 27 ft 12 kts 159°
2026-05-05 11:52 25.27549 51.59868 28 ft 12 kts 158°
2026-05-05 11:52 25.27471 51.59902 29 ft 12 kts 158°
2026-05-05 11:52 25.27394 51.59936 29 ft 12 kts 158°
2026-05-05 11:52 25.27317 51.59971 27 ft 12 kts 158°
2026-05-05 11:53 25.27239 51.60005 28 ft 12 kts 158°
2026-05-05 11:53 25.27161 51.60039 27 ft 12 kts 159°
2026-05-05 11:53 25.27083 51.60073 29 ft 12 kts 158°
2026-05-05 11:53 25.27005 51.60108 28 ft 12 kts 158°
2026-05-05 11:54 25.26929 51.60142 29 ft 12 kts 158°
2026-05-05 11:54 25.26851 51.60178 27 ft 12 kts 157°
2026-05-05 11:54 25.26774 51.60212 26 ft 12 kts 158°
2026-05-05 11:54 25.26696 51.60247 29 ft 12 kts 158°
2026-05-05 11:55 25.26618 51.60280 27 ft 12 kts 159°
2026-05-05 11:55 25.26541 51.60313 29 ft 12 kts 158°
2026-05-05 11:55 25.26463 51.60348 30 ft 12 kts 158°
2026-05-05 11:55 25.26386 51.60383 30 ft 12 kts 158°
2026-05-05 11:56 25.26308 51.60418 29 ft 12 kts 158°
2026-05-05 11:56 25.26231 51.60452 29 ft 12 kts 158°
2026-05-05 11:56 25.26154 51.60488 28 ft 12 kts 158°
2026-05-05 11:56 25.26077 51.60523 28 ft 11 kts 158°
2026-05-05 11:57 25.26053 51.60588 30 ft 11 kts 71°
2026-05-05 11:57 25.26080 51.60662 27 ft 11 kts 68°
2026-05-05 11:57 25.26107 51.60737 27 ft 11 kts 68°
2026-05-05 11:57 25.26134 51.60812 27 ft 11 kts 68°
2026-05-05 11:58 25.26161 51.60887 27 ft 11 kts 68°
2026-05-05 11:58 25.26167 51.60948 27 ft 7 kts 110°
2026-05-05 11:58 25.26155 51.60958 27 ft 2 kts 158°
2026-05-05 11:58 25.26144 51.60962 27 ft 2 kts 163°
2026-05-05 11:59 25.26131 51.60966 27 ft 2 kts 163°
2026-05-05 11:59 25.26117 51.60972 27 ft 2 kts 159°
2026-05-05 11:59 25.26102 51.60979 27 ft 2 kts 159°
2026-05-05 11:59 25.26089 51.60984 27 ft 1 kts 159°